Regional Weather Roundup
Issued by NWS Jackson, KY

Home | Current Version | Previous Version | Text Only | Print | Product List | Glossary On
Versions: 1 2 3 4 5 6 7 8 9 10 11 12 13 14 15 16 17 18 19 20 21 22 23 24 25 26 27 28 29 30 31 32 33 34 35 36 37 38 39 40 41 42 43 44 45 46 47 48 49 50
000
ASUS43 KJKL 211410
RWRJKL

EAST KENTUCKY HOURLY WEATHER ROUNDUP
NATIONAL WEATHER SERVICE JACKSON KY
1000 AM EDT MON AUG 21 2017

NOTE: "FAIR" INDICATES FEW OR NO CLOUDS BELOW 12,000 FEET WITH
NO SIGNIFICANT WEATHER AND/OR OBSTRUCTIONS TO VISIBILITY.

* THESE REPORTS ARE NOT UNDER NWS QUALITY CONTROL AND MAY NOT
  REPORT WEATHER SUCH AS PRECIPITATION AND FOG.

KYZ079-080-083-085-087-088-110-112-115-119-120-211500
...EASTERN KENTUCKY...

CITY           SKY/WX    TMP DP  RH WIND       PRES   REMARKS
JACKSON        SUNNY     76  69  79 CALM      30.24S
LONDON         SUNNY     76  69  79 S3        30.24S
SOMERSET*      SUNNY     77  68  73 S3        30.23S
MONTICELLO*    SUNNY     81  71  71 NE8       30.23F
WILLIAMSBURG*  SUNNY     75  73  94 S3        30.24S
MIDDLESBORO*   PTSUNNY   70  69  97 CALM      30.26S
HARLAN APT*    MOSUNNY   72  66  83 CALM      30.28S
PIKE CO APT*     N/A     72  72 100 SE5       30.26S
BIG SANDY APT* SUNNY     78  72  83 SW3       30.24S
MOREHEAD APT*  MOSUNNY   79  70  73 S6        30.23S
$$

KYZ035-036-041-042-044-050-067-078-099-211500
...CENTRAL KENTUCKY...

CITY           SKY/WX    TMP DP  RH WIND       PRES   REMARKS
MT STERLING*   SUNNY     79  68  69 CALM      30.22F
FLEMING/MASON* SUNNY     80  69  70 S6        30.21S
DANVILLE*      SUNNY     79  70  73 SW5       30.22S
LEXINGTON      SUNNY     81  68  64 S7        30.20S
FRANKFORT      SUNNY     81  67  62 S6        30.17F
LOUISVILLE     PTSUNNY   82  69  64 SE6       30.16S
LEBANON*         N/A     79  68  69 S8        30.20S
GLASGOW*       SUNNY     81  69  68 CALM      30.19S
BOWLING GREEN  SUNNY     81  70  69 CALM      30.18F
$$

KYZ091>093-OHZ055-061-077-WVZ005-015-034-035-042-211500
...SOUTHERN OHIO/WEST VIRGINIA...

CITY           SKY/WX    TMP DP  RH WIND       PRES   REMARKS
COVINGTON      MOSUNNY   81  70  69 SW7       30.17R
COLUMBUS       MOSUNNY   79  71  76 SW7       30.16S
DAYTON         CLOUDY    79  69  71 SW5       30.17S
WILMINGTON     MOSUNNY   80  71  74 SW6       30.17F
HUNTINGTON     SUNNY     77  70  79 SW6       30.20S
CHARLESTON     MOSUNNY   78  69  73 CALM      30.22S
PINEVILLE*     SUNNY     76  68  78 MISG      30.33S
BECKLEY        SUNNY     77  66  68 W6        30.32R
BLUEFIELD      SUNNY     75  62  64 W5        30.35R
LOGAN CO APT*    N/A     77  70  78 CALM      30.26S
$$

VAZ002-007-008-TNZ017-027-036-066-071-211500
...SOUTHWEST VIRGINIA/EAST TENNESSEE...

CITY           SKY/WX    TMP DP  RH WIND       PRES   REMARKS
WISE*          SUNNY     77  64  65 SW6       30.34S
JONESVILLE*      N/A     77  68  73 CALM      30.29R
ABINGDON*      SUNNY     79  69  70 E3        30.31S
BRISTOL        MOSUNNY   77  70  79 NE3       30.27S
MORRISTOWN*    SUNNY     79  70  73 CALM      30.25S
SEVIERVILLE*   SUNNY     79  66  65 E3        30.24R
KNOXVILLE      MOSUNNY   79  68  69 CALM      30.23R
LAFOLLETTE*    SUNNY     77  70  78 CALM      30.28S
OAK RIDGE      MOSUNNY   77  70  79 E5        30.25S
CROSSVILLE     SUNNY     79  68  69 SE3       30.27S
NASHVILLE      MOSUNNY   82  71  69 S3        30.19R
$$

...KEY TO REMARKS...
VSB - VISIBILITY IN MILES
WCI - WIND CHILL INDEX
HX  - HEAT INDEX

$$



USA.gov is the U.S. government's official web portal to all federal, state and local government web resources and services.